This demonstration page uses our WeatherBlox Daily Observations layout. Learn more.

Left ArrowRight Arrow

Hourly Observations for August 13, 2021

Temp ( °F °C ) Dew Point ( °F °C ) Humidity (%) Winds ( mph kmh ) Pressure ( in mb ) Visibility ( mi km ) Precip ( " mm )
12:59 am 00:59 Clear 83 28.3 76 24.4 79 79 SSW 10 17 30.10 1019 8 13 0.00 0.00
1:59 am 01:59 Clear 83 28.3 76 24.4 79 79 SSW 8 13 30.10 1019 9 14 0.00 0.00
2:59 am 02:59 Clear 81 27.2 75 23.9 82 82 SSW 9 15 30.09 1019 9 14 0.00 0.00
3:59 am 03:59 Clear 81 27.2 74 23.3 79 79 SW 8 13 30.09 1019 9 14 0.00 0.00
4:59 am 04:59 Clear 80 26.7 74 23.3 82 82 SSW 7 11 30.07 1018 9 14 0.00 0.00
5:59 am 05:59 Mostly Clear 79 26.1 74 23.3 85 85 SSW 7 11 30.08 1019 9 14 0.00 0.00
6:59 am 06:59 Mostly Sunny 80 26.7 74 23.3 82 82 SSW 9 15 30.08 1019 7 11 0.00 0.00
7:59 am 07:59 Mostly Sunny 81 27.2 75 23.9 82 82 SW 7 11 30.10 1019 8 13 0.00 0.00
8:59 am 08:59 Mostly Sunny 83 28.3 75 23.9 77 77 SW 9 15 30.11 1020 8 13 0.00 0.00
9:59 am 09:59 Mostly Sunny 87 30.6 76 24.4 70 70 WSW 8 13 30.12 1020 8 13 0.00 0.00
10:59 am 10:59 Mostly Sunny 89 31.7 75 23.9 63 63 WSW 8 13 30.13 1020 8 13 0.00 0.00
11:59 am 11:59 Mostly Sunny 92 33.3 76 24.4 60 60 SSW 9 15 30.12 1020 8 13 0.00 0.00
12:59 pm 12:59 Mostly Sunny 93 33.9 74 23.3 54 54 SW 10 17 30.11 1020 9 14 0.00 0.00
1:59 pm 13:59 Partly Cloudy 95 35 74 23.3 51 51 SSW 10 17 30.10 1019 9 14 0.00 0.00
2:59 pm 14:59 Partly Cloudy 95 35 74 23.3 51 51 SW 10 17 30.08 1019 9 14 0.00 0.00
3:59 pm 15:59 Partly Cloudy 96 35.6 75 23.9 51 51 SW 8 13 30.05 1018 8 13 0.00 0.00
4:59 pm 16:59 Mostly Cloudy 94 34.4 74 23.3 52 52 SW 8 13 30.04 1017 8 13 0.00 0.00
5:59 pm 17:59 Partly Cloudy 94 34.4 75 23.9 54 54 SW 13 20 30.05 1018 8 13 0.00 0.00
6:59 pm 18:59 Partly Cloudy 92 33.3 75 23.9 58 58 SSW 10 17 30.06 1018 8 13 0.00 0.00
7:59 pm 19:59 Mostly Cloudy 90 32.2 75 23.9 62 62 SW 7 11 30.07 1018 7 11 0.00 0.00
8:59 pm 20:59 Partly Cloudy 88 31.1 75 23.9 66 66 SSW 6 9 30.09 1019 9 14 0.00 0.00
9:59 pm 21:59 Partly Cloudy 88 31.1 75 23.9 66 66 SW 8 13 30.11 1020 9 14 0.00 0.00
10:59 pm 22:59 Partly Cloudy 85 29.4 75 23.9 72 72 SW 6 9 30.12 1020 10 16 0.00 0.00
11:59 pm 23:59 Mostly Cloudy 84 28.9 75 23.9 74 74 SW 9 15 30.11 1020 10 16 0.00 0.00

Powered by AerisWeather